[[{"header":{"parameterUnit":"m.s-1","parameterCategory":1,"la1":30.2991,"la2":30.254,"lo1":-89.0895,"lo2":-89.0444,"dy":0.0017,"dx":0.0017,"nx":28,"ny":28,"refTime":"2025-04-09T09:00:00:Z","depth":0,"parameterNumber":2,"parameterNumberName":"U-component_of_WINDS"},"data":[0,0,0,0,0,0,0,0,0,0,0,0,0,0,0,0,0,0,0,0,0,0,0,0,0,0,0,0,0,0,0,0,0,0,0,0,0,0,0,0,0,0,0,0,0,0,0,0,0,0,0,0,0,0,0,0,0,0,0.0929,0.0928,0,0.0843,0.0842,0.0841,0.0839,0.084,0.0842,0.0843,0.0751,0.0748,0.0744,0,0,0,0,0,0,0,0,0,0,0,0,0,0.1089,0.1086,0.0929,0.0928,0.0927,0.0843,0.0842,0.0841,0.0839,0.0841,0.0842,0.0843,0.0752,0.0748,0.0744,0,0,0,0,0,0,0,0,0,0,0,0,0,0.1013,0.1085,0.0929,0.0916,0.0914,0.0843,0.0842,0.0841,0.0839,0.0841,0.0842,0.0844,0.0753,0.0748,0.0743,0.0679,0,0,0.0727,0.0725,0,0,0,0,0,0,0,0,0.1017,0.1007,0.0919,0.0917,0.0915,0.0854,0.0865,0.0786,0.0839,0.0867,0.0843,0.0844,0.0784,0.0776,0.0756,0.0675,0.0671,0.0727,0.0724,0.0722,0.072,0,0,0,0,0,0,0,0.1022,0.101,0.0895,0.0918,0.0915,0.0913,0.0904,0.085,0.0817,0.0865,0.0865,0.0855,0.0783,0.0761,0.0754,0.0669,0.0727,0.0723,0.0719,0.0717,0.053,0.0528,0,0,0,0,0,0,0.1031,0.1015,0.0898,0.0892,0.0971,0.0909,0.0899,0.0872,0.0818,0.0811,0.0853,0.0855,0.0769,0.076,0.0751,0.0671,0.0722,0.0717,0.0714,0.0532,0.053,0.0528,0,0,0,0,0,0,0.1034,0.102,0.0901,0.0953,0.0938,0.0905,0.0874,0.0869,0.0848,0.0809,0.0803,0.0838,0.077,0.0758,0.0697,0.0668,0.0715,0.071,0.0534,0.0531,0.0529,0.0512,0,0,0,0,0,0,0.1039,0.1021,0.0997,0.0953,0.0936,0.0849,0.0872,0.0866,0.0839,0.084,0.0793,0.0786,0.077,0.0705,0.0692,0.0662,0.0706,0.0536,0.0533,0.0529,0.0514,0.0508,0.0503,0,0,0,0,0,0.1044,0.0995,0.0996,0.0982,0.0905,0.0848,0.0838,0.0821,0.0837,0.0812,0.0787,0.0788,0.0674,0.0698,0.0684,0.0652,0.0538,0.0534,0.053,0.0517,0.051,0.0504,0,0,0,0,0,0,0.1035,0.0989,0.0989,0.0925,0.0891,0.0848,0.0815,0.0814,0.0774,0.0776,0.0757,0.0746,0.0685,0.0662,0.0691,0.0586,0.0608,0.06,0.0603,0.0596,0.059,0.0596,0.0701,0,0,0,0,0,0.1026,0.0985,0.0946,0.0893,0.0876,0.0849,0.0823,0.0814,0.0777,0.0762,0.0733,0.0696,0.0652,0.0623,0.058,0.0512,0.0501,0.0483,0.0477,0.0473,0.0466,0.0428,0.0419,0.0514,0.0514,0.0514,0,0,0.1006,0.0976,0.0951,0.089,0.0863,0.0819,0.0836,0.079,0.0757,0.0754,0.0695,0.0672,0.063,0.0565,0.0535,0.0544,0.0438,0.0468,0.0464,0.046,0.0422,0.0413,0.0405,0.0511,0.0511,0.0512,0,0,0.0947,0.0921,0.0873,0.0845,0.0803,0.0786,0.0774,0.0732,0.0717,0.0658,0.0655,0.0615,0.054,0.0509,0.0484,0.0415,0.0413,0.0401,0.0371,0.0334,0.0326,0.032,0.0294,0.0285,0.0395,0.0395,0.0395,0,0.0927,0.0862,0.0848,0.0801,0.0774,0.0772,0.0723,0.0696,0.0642,0.0623,0.0635,0.054,0.0512,0.0439,0.0422,0.0403,0.0388,0.0405,0.0329,0.0322,0.0315,0.029,0.0281,0.0394,0.0394,0.0394,0.0394,0,0.0839,0.0794,0.076,0.0709,0.0679,0.0631,0.0609,0.058,0.0574,0.0554,0.0493,0.0459,0.0409,0.0392,0.0385,0.0318,0.0325,0.0333,0.0354,0.0305,0.0281,0.0272,0.0392,0.0392,0.0393,0.0393,0,0,0.0769,0.0713,0.07,0.0677,0.0631,0.0596,0.0548,0.05,0.0475,0.0438,0.0396,0.0333,0.0341,0.0312,0.0302,0.0269,0.0215,0.0281,0.028,0.0269,0.0138,0.0131,0.012,0.0215,0.0213,0.0212,0.0141,0,0.0704,0.062,0.0606,0.0531,0.0489,0.0487,0.0445,0.0412,0.0394,0.0354,0.0333,0.0288,0.0302,0.0285,0.0253,0.0228,0.0188,0.0234,0.0174,0.0172,0.0183,0.0108,0.01,0.0035,0.0132,0.013,0.0129,0,0.0616,0.0578,0.0499,0.046,0.0441,0.0404,0.0359,0.0322,0.0285,0.0273,0.0242,0.0236,0.0185,0.021,0.0139,0.017,0.0145,0.013,0.0127,0.0119,0.0146,0.0096,0.0014,0.0003,0.0114,0.0116,0.0117,0,0.0571,0.0501,0.0444,0.0425,0.0377,0.0351,0.033,0.0294,0.0266,0.0227,0.0208,0.0164,0.0138,0.0104,0.0085,0.0105,0.0015,0.0038,0.0002,0.0003,-0.0018,-0.0017,-0.0108,-0.0031,-0.0031,-0.0031,-0.003,0,0.0498,0.045,0.0424,0.0389,0.0334,0.0319,0.0266,0.0245,0.0213,0.0174,0.0169,0.0132,0.0111,0.007,0.0055,-0.0002,-0.0013,-0.0025,-0.0028,-0.0025,-0.0024,-0.0044,-0.004,-0.0033,-0.0033,-0.0032,-0.0032,0,0.0438,0.0419,0.0357,0.0318,0.0307,0.0268,0.0234,0.02,0.0182,0.0132,0.0119,0.0091,0.0043,0.0022,-0.0038,-0.0048,-0.0114,-0.0113,-0.0101,-0.0103,-0.0138,-0.0135,-0.0246,-0.0261,-0.0172,-0.0173,-0.0174,0,0.0392,0.0355,0.0312,0.0286,0.0264,0.0222,0.0194,0.0178,0.0149,0.0104,0.0074,0.0027,-0.0013,-0.0089,-0.0116,-0.0162,-0.0164,-0.0199,-0.0171,-0.0167,-0.0166,-0.0165,-0.0169,-0.0205,-0.0206,-0.0207,-0.0207,0,0.0311,0.0304,0.0264,0.0221,0.0189,0.0154,0.012,0.0098,0.0077,0.0044,-0.0004,-0.0035,-0.0095,-0.0143,-0.019,-0.0213,-0.0215,-0.0216,-0.0227,-0.0225,-0.0217,-0.0223,-0.0117,-0.0214,-0.0213,-0.0213,-0.0212,-0.0212,0.0255,0.0222,0.0187,0.0143,0.0116,0.0084,0.005,0.0029,-0.0012,-0.0061,-0.0068,-0.012,-0.0157,-0.022,-0.0244,-0.0286,-0.0278,-0.0293,-0.0297,-0.0302,-0.0304,-0.0208,-0.0294,-0.0294,-0.0294,-0.0294,-0.0294,0,0.0173,0.0151,0.0111,0.0064,0.0029,0.0033,-0.0005,-0.0034,-0.008,-0.0113,-0.0151,-0.0207,-0.0253,-0.0283,-0.033,-0.0358,-0.036,-0.037,-0.0369,-0.0374,-0.0309,-0.0295,-0.0367,-0.0367,-0.0367,-0.0367,-0.0367,-0.0367,0.0126,0.007,0.0058,-0.0012,-0.0034,-0.0084,-0.0106,-0.0135,-0.0162,-0.0224,-0.0262,-0.028,-0.0313,-0.0362,-0.0404,-0.0412,-0.043,-0.044,-0.0448,-0.0386,-0.0379,-0.0372,-0.0359,-0.0443,-0.0444,-0.051,-0.0511,-0.0511]},{"header":{"parameterUnit":"m.s-1","parameterCategory":1,"la1":30.2991,"la2":30.254,"lo1":-89.0895,"lo2":-89.0444,"dy":0.0017,"dx":0.0017,"nx":28,"ny":28,"refTime":"2025-04-09T09:00:00:Z","depth":0,"parameterNumber":3,"parameterNumberName":"V-component_of_WINDS"},"data":[0,0,0,0,0,0,0,0,0,0,0,0,0,0,0,0,0,0,0,0,0,0,0,0,0,0,0,0,0,0,0,0,0,0,0,0,0,0,0,0,0,0,0,0,0,0,0,0,0,0,0,0,0,0,0,0,0,0,-4.992,-4.9921,0,-5.0038,-5.004,-5.0041,-4.9971,-4.9967,-4.9964,-4.9961,-5.0079,-5.0085,-5.0091,0,0,0,0,0,0,0,0,0,0,0,0,0,-4.9628,-4.9633,-4.992,-4.9921,-4.9923,-5.0038,-5.004,-5.0041,-4.9971,-4.9967,-4.9963,-4.9959,-5.0077,-5.0084,-5.0092,0,0,0,0,0,0,0,0,0,0,0,0,0,-4.9751,-4.9635,-4.9919,-4.9902,-4.9901,-5.0038,-5.004,-5.0042,-4.9972,-4.9967,-4.9962,-4.9957,-5.0074,-5.0083,-5.0093,-5.0252,0,0,-5.0122,-5.0126,0,0,0,0,0,0,0,0,-4.9744,-4.9762,-4.9903,-4.9903,-4.9903,-4.9985,-4.998,-5.0112,-4.9973,-4.9945,-4.9961,-4.9955,-5.0051,-5.0062,-5.0096,-5.0258,-5.0263,-5.0122,-5.0128,-5.0132,-5.0135,0,0,0,0,0,0,0,-4.9736,-4.9757,-4.9966,-4.9905,-4.9905,-4.9886,-4.9898,-5.0005,-5.0025,-4.9947,-4.9942,-4.9958,-5.005,-5.0087,-5.0098,-5.0265,-5.0122,-5.013,-5.0136,-5.014,-5.0562,-5.0567,0,0,0,0,0,0,-4.9729,-4.975,-4.9963,-4.997,-4.981,-4.9896,-4.9909,-4.9963,-5.0024,-5.0028,-4.9962,-4.9954,-5.0073,-5.0087,-5.0102,-5.0292,-5.0132,-5.0141,-5.0146,-5.0557,-5.0563,-5.0569,0,0,0,0,0,0,-4.9723,-4.9749,-4.9958,-4.9859,-4.9884,-4.9906,-4.9968,-4.9969,-5.0005,-5.0035,-5.0038,-4.9996,-5.007,-5.0088,-5.0215,-5.0295,-5.0145,-5.0154,-5.055,-5.0559,-5.0566,-5.0674,0,0,0,0,0,0,-4.9715,-4.9747,-4.9809,-4.9861,-4.989,-5.0072,-4.9973,-4.9974,-5.0022,-5.0012,-5.0067,-5.0071,-5.0067,-5.0202,-5.0225,-5.0305,-5.0161,-5.0543,-5.0554,-5.0564,-5.0664,-5.0685,-5.0704,0,0,0,0,0,-4.9705,-4.9834,-4.9813,-4.9839,-4.9968,-5.0076,-5.0093,-5.0086,-5.0028,-5.009,-5.0109,-5.007,-5.0283,-5.0215,-5.0241,-5.0325,-5.0538,-5.0551,-5.0563,-5.0655,-5.0681,-5.0703,0,0,0,0,0,0,-4.9791,-4.9841,-4.9817,-4.9968,-5.0018,-5.0064,-5.0142,-5.0114,-5.0181,-5.017,-5.0157,-5.017,-5.0303,-5.0326,-5.0251,-5.0482,-5.0401,-5.0419,-5.0462,-5.0487,-5.0507,-5.0499,-5.0169,0,0,0,0,0,-4.9827,-4.9913,-4.9951,-5.008,-5.0106,-5.012,-5.0167,-5.0158,-5.0209,-5.023,-5.0258,-5.0308,-5.0386,-5.0438,-5.0511,-5.0666,-5.0677,-5.0737,-5.0757,-5.0773,-5.0789,-5.0872,-5.0899,-5.061,-5.061,-5.061,0,0,-4.9904,-4.9941,-4.9996,-5.0098,-5.0136,-5.0223,-5.0139,-5.0235,-5.0299,-5.0244,-5.0366,-5.0388,-5.0443,-5.0585,-5.0649,-5.0609,-5.0871,-5.0789,-5.0802,-5.0809,-5.0887,-5.0915,-5.0939,-5.0619,-5.0617,-5.0616,0,0,-5.0087,-5.0125,-5.0236,-5.0276,-5.0335,-5.0343,-5.0369,-5.042,-5.0433,-5.0555,-5.0516,-5.059,-5.0725,-5.0766,-5.0804,-5.1002,-5.0968,-5.1026,-5.1131,-5.1211,-5.1234,-5.1254,-5.1324,-5.1349,-5.1042,-5.1042,-5.1042,0,-5.0174,-5.0305,-5.0296,-5.0395,-5.0441,-5.0396,-5.0507,-5.0546,-5.0626,-5.0658,-5.0612,-5.078,-5.0814,-5.0964,-5.1012,-5.1045,-5.1073,-5.102,-5.1232,-5.1252,-5.127,-5.1337,-5.1363,-5.1049,-5.1048,-5.1047,-5.1047,0,-5.0409,-5.05,-5.0582,-5.0662,-5.0716,-5.0821,-5.0826,-5.0882,-5.0868,-5.088,-5.1004,-5.1043,-5.1123,-5.1158,-5.1144,-5.1306,-5.1279,-5.1233,-5.1151,-5.1305,-5.1367,-5.1392,-5.1058,-5.1056,-5.1054,-5.1052,0,0,-5.0651,-5.0723,-5.0754,-5.0788,-5.085,-5.0919,-5.1021,-5.1101,-5.1149,-5.1204,-5.1289,-5.1403,-5.1361,-5.1404,-5.1394,-5.1465,-5.1618,-5.141,-5.1411,-5.1447,-5.1798,-5.1832,-5.1862,-5.1596,-5.16,-5.1604,-5.1793,0,-5.0838,-5.1018,-5.1012,-5.1179,-5.1262,-5.122,-5.1308,-5.1355,-5.1368,-5.144,-5.1454,-5.1536,-5.1474,-5.1499,-5.1568,-5.1585,-5.1688,-5.1572,-5.1673,-5.1677,-5.1661,-5.1895,-5.1932,-5.2108,-5.1817,-5.1821,-5.1824,0,-5.1081,-5.1146,-5.1321,-5.1369,-5.1404,-5.1484,-5.1556,-5.1625,-5.1676,-5.1681,-5.1729,-5.1708,-5.1809,-5.1724,-5.1863,-5.1783,-5.1824,-5.1839,-5.1845,-5.1855,-5.176,-5.191,-5.2164,-5.2191,-5.1863,-5.186,-5.1857,0,-5.1239,-5.1371,-5.1492,-5.1524,-5.1583,-5.164,-5.1667,-5.1712,-5.176,-5.1822,-5.1853,-5.1925,-5.1965,-5.2021,-5.2019,-5.1958,-5.2159,-5.2074,-5.2165,-5.2165,-5.221,-5.2207,-5.2474,-5.2236,-5.2236,-5.2235,-5.2235,0,-5.1449,-5.1558,-5.1564,-5.164,-5.176,-5.1751,-5.1869,-5.189,-5.1931,-5.2008,-5.1975,-5.2048,-5.2041,-5.2114,-5.2112,-5.2227,-5.2245,-5.2251,-5.2249,-5.2254,-5.2253,-5.2281,-5.2268,-5.2242,-5.2241,-5.2239,-5.2238,0,-5.1647,-5.1656,-5.1786,-5.1831,-5.1845,-5.1931,-5.1969,-5.2039,-5.205,-5.2148,-5.217,-5.2186,-5.227,-5.2273,-5.2369,-5.2368,-5.2508,-5.2492,-5.2491,-5.2488,-5.2579,-5.257,-5.2873,-5.2912,-5.2648,-5.2651,-5.2653,0,-5.1781,-5.1864,-5.1918,-5.1968,-5.1999,-5.2079,-5.2128,-5.2121,-5.2173,-5.2237,-5.2299,-5.238,-5.2444,-5.258,-5.2599,-5.2672,-5.2658,-5.2759,-5.2668,-5.267,-5.2659,-5.2654,-5.2662,-5.2776,-5.2779,-5.2782,-5.2784,0,-5.2017,-5.2017,-5.2089,-5.2163,-5.2222,-5.228,-5.2333,-5.2375,-5.2375,-5.2434,-5.252,-5.257,-5.2668,-5.2748,-5.2819,-5.2844,-5.2814,-5.2812,-5.2837,-5.2843,-5.2839,-5.2842,-5.2539,-5.2805,-5.2803,-5.2801,-5.28,-5.2799,-5.2187,-5.2258,-5.2307,-5.2389,-5.2428,-5.2478,-5.2547,-5.2565,-5.2637,-5.2718,-5.2709,-5.2804,-5.2851,-5.2943,-5.2974,-5.3047,-5.3012,-5.3048,-5.3057,-5.3067,-5.3076,-5.2827,-5.306,-5.3059,-5.3059,-5.3058,-5.3058,0,-5.2421,-5.245,-5.2525,-5.2601,-5.2665,-5.2631,-5.2688,-5.2743,-5.2827,-5.2874,-5.2938,-5.3036,-5.3113,-5.3138,-5.3213,-5.3267,-5.3254,-5.3286,-5.3282,-5.3289,-5.3103,-5.3075,-5.3295,-5.3295,-5.3295,-5.3295,-5.3295,-5.3295,-5.255,-5.2669,-5.2675,-5.2812,-5.284,-5.2935,-5.297,-5.3015,-5.3052,-5.3164,-5.3228,-5.3244,-5.3282,-5.3359,-5.3428,-5.3433,-5.3462,-5.35,-5.3499,-5.3326,-5.3302,-5.3279,-5.3252,-5.3506,-5.3506,-5.3678,-5.368,-5.3681]}]]